Temp
82 90 92 86 72 72 69 70 77 74 76 80 80 78 76 79 76 69 83 86 84 87 86 78 75 77 77 76 76 76 76 77 77 77 77 77 77 76 76 76 76 76 76 75 75 74 73 72 72
91 90 88 83 69 66 69 75 72 76 79 80 79 78 78 77 86 86 84 84 84 86 86 82 73 76 76 76 76 76 76 77 77 77 77 77 77 77 77 76 75 76 75 74 74 73 72 71 71
87 89 81 75 70 66 67 74 76 79 81 78 77 81 80 80 86 86 84 85 84 86 86 83 74 75 76 75 75 75 76 76 77 77 77 77 76 76 76 74 75 75 74 73 73 72 71 71 70
87 86 83 70 67 72 72 78 80 79 79 78 79 76 84 89 86 87 84 85 84 85 85 75 74 75 76 75 75 76 76 76 77 77 77 77 76 75 74 74 74 73 73 72 72 72 71 70 69
87 83 71 67 69 73 78 80 79 76 78 79 78 78 80 86 87 84 84 84 83 85 84 80 73 74 75 75 75 75 76 76 76 76 77 77 76 75 73 73 73 73 72 72 72 71 70 69 68
79 80 68 67 71 75 78 79 78 78 79 80 76 78 82 86 84 85 84 84 85 84 82 82 71 71 73 74 74 75 75 75 76 76 76 76 76 75 73 72 72 72 71 71 71 69 69 68 67
74 72 68 69 70 72 75 79 77 78 79 80 82 76 85 85 85 83 83 85 84 85 81 80 78 74 68 70 71 73 74 74 74 74 74 73 74 73 71 71 71 71 71 71 70 69 68 67 66
79 75 68 71 70 69 77 77 80 78 78 81 83 77 80 83 80 80 81 82 83 82 80 80 80 79 77 77 67 69 70 71 72 71 70 69 70 70 69 68 70 71 71 70 69 68 67 66 64
79 69 66 69 70 73 78 74 79 83 78 82 82 81 87 81 78 78 78 78 79 79 79 79 79 80 79 79 76 66 67 68 68 69 66 66 74 72 70 68 68 70 69 69 68 67 66 63 61
72 68 70 77 78 75 78 77 77 76 78 80 83 88 89 88 80 78 79 79 77 77 78 79 79 79 79 80 79 76 77 72 72 73 74 72 74 74 72 67 65 67 67 67 67 66 62 61 67
74 67 76 77 78 78 75 74 79 74 72 80 81 85 88 87 85 81 80 82 82 83 80 78 78 79 78 78 79 78 77 74 72 74 75 73 74 73 71 70 68 68 63 67 66 62 64 67 68
65 73 74 75 76 71 71 77 74 74 76 82 84 85 84 82 82 83 82 83 83 83 84 81 78 78 78 78 77 77 77 76 75 75 75 73 72 70 69 69 69 68 67 67 65 64 65 64 65
66 70 74 75 74 71 72 70 72 73 81 84 84 83 82 82 81 84 84 84 82 81 83 83 80 77 77 76 77 76 76 76 76 76 75 73 70 68 69 69 69 69 68 67 64 63 62 62 63
72 68 70 72 72 72 68 70 73 76 83 82 81 82 84 85 85 84 83 82 81 80 81 82 81 78 78 76 75 75 76 76 75 74 73 71 70 68 68 67 67 67 67 66 64 63 62 62 62
68 63 69 72 74 71 69 64 67 79 81 78 78 82 83 84 86 85 86 84 84 82 81 79 80 79 76 76 75 75 75 75 73 73 72 70 70 69 68 66 66 66 65 64 63 63 63 62 61
63 66 58 71 68 68 66 60 73 78 77 75 77 79 80 82 84 86 86 84 86 83 82 80 78 77 76 75 75 75 75 74 73 72 72 69 68 69 67 65 64 65 63 62 61 61 60 61 60
65 56 60 63 73 67 63 60 70 75 73 72 75 77 78 79 82 83 82 81 80 82 81 80 78 75 74 73 74 74 73 72 72 72 71 69 67 67 66 65 64 64 61 60 61 60 60 59 60
59 60 62 61 69 66 64 63 69 73 73 73 75 77 78 78 77 75 74 73 74 75 76 76 76 75 73 72 71 72 71 71 72 71 70 69 67 65 65 64 63 61 59 59 59 58 60 59 58
63 60 58 63 68 64 61 62 66 71 72 73 76 77 77 75 74 71 68 66 66 65 65 68 70 72 71 69 66 66 66 67 68 68 68 68 67 64 63 62 62 59 57 57 58 58 56 56 57
60 56 56 63 67 59 60 59 64 69 70 74 72 73 71 70 67 64 63 61 60 59 60 62 64 68 69 68 67 67 67 68 68 66 66 66 65 63 62 61 60 58 57 57 56 55 53 55 55
58 55 56 55 60 62 59 57 64 69 73 75 72 71 67 62 60 59 58 58 57 56 57 58 60 63 65 66 66 65 65 61 62 63 64 63 64 63 59 60 60 57 57 55 55 55 53 51 52
52 63 58 55 51 48 58 44 57 66 68 66 65 63 60 58 58 57 55 55 54 55 56 58 58 59 60 62 63 61 59 57 60 61 62 61 61 61 60 58 59 57 56 56 53 55 54 53 48
56 57 56 54 50 50 53 50 57 66 62 65 61 58 57 57 55 54 54 54 55 54 54 56 56 56 57 58 59 58 57 59 61 61 59 60 59 58 59 57 57 56 55 55 54 53 53 55 52
56 54 55 54 50 41 53 52 54 59 60 56 55 55 55 55 55 55 55 55 54 54 54 54 54 54 55 55 55 55 54 55 56 58 56 57 58 57 56 55 54 55 55 54 54 52 52 53 54
52 50 41 41 41 40 56 48 54 63 65 61 54 52 53 54 53 53 52 52 51 51 52 52 52 51 53 53 52 52 52 53 54 55 55 55 55 55 54 54 52 53 53 54 54 51 50 51 51
53 52 41 31 35 42 48 41 51 57 55 54 54 52 52 51 52 51 51 51 51 50 50 51 50 49 50 50 50 51 50 51 51 52 52 53 54 55 55 53 53 52 52 52 53 50 49 50 50
51 45 51 38 37 35 44 52 60 58 51 51 49 49 47 48 49 50 50 50 50 49 49 49 48 48 48 49 49 49 49 49 48 48 49 49 49 51 51 52 51 50 50 50 50 48 47 48 48
51 55 36 39 27 28 40 44 47 56 52 47 46 45 46 47 47 48 49 49 49 49 49 49 48 46 46 46 47 47 46 47 48 48 46 46 47 47 47 47 48 47 47 47 47 46 46 46 46
48 44 46 45 40 30 29 39 52 49 49 45 44 44 44 45 46 47 47 48 48 48 47 47 47 45 44 45 45 44 44 44 45 44 44 44 44 45 44 44 44 44 44 45 45 45 44 44 44
50 45 46 33 31 37 35 35 55 47 45 43 41 42 43 43 44 45 46 47 47 46 46 45 46 44 43 44 43 42 43 41 41 41 41 41 41 42 43 44 42 42 43 44 43 42 41 43 42
MSLP
1013.40 1012.73 1012.18 1011.53 1010.59 1009.39 1008.13 1008.40 1008.76 1008.65 1008.68 1009.55 1009.72 1009.57 1009.50 1009.28 1008.92 1009.53 1010.80 1010.85 1011.23 1011.34 1011.84 1013.14 1013.62 1014.05 1014.48 1014.93 1015.16 1015.49 1015.76 1015.94 1016.04 1016.26 1016.44 1016.59 1016.78 1016.85 1017.00 1017.17 1017.27 1017.37 1017.57 1017.79 1017.77 1017.96 1018.45 1018.50 1018.60
1012.75 1012.48 1011.88 1010.65 1009.68 1007.98 1007.82 1008.56 1008.71 1009.17 1009.56 1009.90 1009.96 1009.78 1009.41 1008.72 1009.04 1009.45 1010.32 1011.05 1011.36 1011.48 1011.96 1012.97 1013.67 1014.04 1014.46 1014.84 1015.23 1015.53 1015.75 1015.90 1016.08 1016.35 1016.54 1016.65 1016.86 1016.98 1017.06 1017.37 1017.47 1017.51 1017.77 1018.00 1018.07 1018.41 1018.54 1018.75 1018.79
1013.00 1012.48 1011.09 1010.11 1009.34 1008.16 1008.22 1008.63 1008.81 1009.25 1009.58 1009.91 1009.73 1009.81 1009.35 1008.72 1009.23 1009.68 1010.80 1011.14 1011.45 1011.61 1011.99 1012.70 1013.64 1014.03 1014.36 1014.76 1015.08 1015.39 1015.72 1015.88 1016.03 1016.27 1016.56 1016.78 1016.96 1017.18 1017.39 1017.55 1017.51 1017.83 1018.04 1018.07 1018.27 1018.61 1018.75 1018.88 1019.12
1012.52 1011.75 1011.22 1010.15 1008.94 1008.84 1008.88 1008.77 1008.99 1009.09 1009.63 1010.02 1009.83 1009.26 1009.18 1009.20 1009.61 1010.25 1011.00 1011.24 1011.56 1011.69 1012.09 1012.80 1013.47 1013.91 1014.22 1014.62 1014.96 1015.27 1015.50 1015.79 1015.93 1016.16 1016.39 1016.58 1016.99 1017.36 1017.64 1017.71 1017.91 1018.02 1018.18 1018.31 1018.62 1018.88 1019.00 1019.14 1019.23
1012.41 1011.34 1010.20 1009.62 1009.04 1009.14 1009.06 1009.20 1009.46 1009.33 1009.28 1009.37 1009.75 1008.88 1008.86 1009.27 1010.00 1010.66 1010.98 1011.26 1011.48 1011.73 1012.17 1012.77 1013.43 1013.75 1014.07 1014.36 1014.68 1015.01 1015.34 1015.58 1015.76 1016.06 1016.34 1016.35 1017.01 1017.34 1017.81 1017.99 1018.02 1018.10 1018.43 1018.61 1018.81 1019.06 1019.21 1019.30 1019.53
1011.59 1011.33 1009.95 1008.90 1008.66 1008.80 1009.18 1009.54 1009.61 1009.38 1009.34 1009.35 1009.68 1009.13 1008.76 1009.52 1010.12 1010.45 1010.99 1011.25 1011.40 1011.58 1012.15 1012.48 1013.46 1013.86 1014.02 1014.23 1014.50 1014.77 1015.04 1015.28 1015.56 1015.92 1016.24 1016.39 1016.88 1017.32 1017.81 1018.09 1018.21 1018.46 1018.71 1018.88 1019.03 1019.23 1019.46 1019.48 1019.81
1011.80 1011.06 1009.89 1009.52 1009.06 1009.01 1009.19 1009.88 1009.64 1009.34 1009.18 1009.08 1009.41 1009.07 1008.52 1009.28 1010.11 1010.75 1011.02 1011.15 1011.39 1011.43 1012.12 1012.50 1013.04 1013.65 1014.04 1014.24 1014.42 1014.62 1014.85 1015.08 1015.37 1015.69 1015.96 1016.28 1016.71 1017.27 1017.79 1018.12 1018.31 1018.58 1018.79 1018.97 1019.15 1019.56 1019.61 1019.80 1020.03
1012.06 1011.30 1010.14 1009.47 1008.92 1009.06 1009.48 1009.88 1009.96 1009.81 1009.26 1009.75 1009.72 1008.73 1008.43 1009.56 1010.60 1011.01 1011.14 1011.10 1011.26 1011.52 1011.91 1012.18 1012.53 1013.04 1013.46 1013.82 1014.33 1014.50 1014.70 1014.90 1015.23 1015.54 1015.83 1016.27 1016.69 1017.29 1017.76 1018.11 1018.33 1018.57 1018.77 1019.01 1019.34 1019.58 1019.85 1020.19 1020.26
1012.66 1011.31 1009.87 1009.34 1009.27 1009.03 1009.82 1010.06 1010.08 1010.07 1009.80 1009.27 1009.31 1009.25 1009.03 1010.09 1010.80 1010.84 1010.92 1011.02 1011.06 1011.25 1011.60 1011.92 1012.18 1012.44 1012.84 1013.23 1013.64 1014.42 1014.55 1014.83 1015.17 1015.47 1015.68 1016.18 1016.64 1017.17 1017.59 1017.94 1018.16 1018.47 1018.76 1019.07 1019.44 1019.71 1019.97 1020.33 1020.50
1012.36 1011.06 1009.84 1009.50 1009.44 1009.52 1009.71 1009.92 1009.92 1009.84 1009.25 1008.52 1008.20 1008.03 1008.45 1008.95 1009.96 1010.07 1009.98 1010.04 1010.46 1010.76 1011.07 1011.50 1011.80 1012.04 1012.33 1012.62 1013.01 1013.65 1014.06 1014.65 1014.89 1015.13 1015.38 1016.06 1016.32 1016.57 1017.03 1017.58 1018.19 1018.47 1018.83 1019.20 1019.51 1019.75 1020.17 1020.31 1019.94
1011.68 1010.97 1010.15 1009.95 1010.17 1010.21 1010.26 1010.17 1009.96 1009.73 1008.87 1008.25 1007.69 1007.46 1007.68 1008.11 1008.43 1009.02 1009.17 1009.12 1009.28 1009.71 1010.43 1011.07 1011.28 1011.49 1011.84 1012.05 1012.39 1012.86 1013.41 1013.91 1014.42 1014.71 1015.00 1015.70 1015.94 1016.39 1016.98 1017.39 1017.99 1018.36 1018.82 1019.19 1019.62 1020.08 1020.01 1019.74 1019.80
1011.90 1011.16 1011.00 1010.61 1010.77 1011.10 1010.56 1010.07 1009.86 1009.69 1008.67 1008.56 1008.03 1007.75 1007.70 1007.63 1007.65 1007.83 1008.10 1008.36 1008.62 1008.93 1009.10 1009.80 1010.60 1011.01 1011.31 1011.69 1012.04 1012.29 1012.58 1012.91 1013.50 1013.86 1014.38 1015.04 1015.61 1016.22 1016.78 1017.02 1017.50 1017.89 1018.42 1018.67 1019.16 1019.61 1019.70 1020.01 1020.17
1011.86 1011.34 1011.01 1010.94 1010.98 1011.30 1011.03 1010.14 1009.93 1008.96 1008.65 1008.09 1007.71 1007.43 1007.27 1007.16 1007.22 1007.33 1007.39 1007.62 1008.04 1008.24 1008.31 1008.67 1009.48 1010.09 1010.57 1011.08 1011.21 1011.71 1011.94 1012.21 1012.62 1013.15 1013.70 1014.43 1015.17 1015.92 1016.39 1016.70 1017.05 1017.47 1018.04 1018.38 1019.02 1019.37 1019.81 1020.01 1020.19
1011.58 1011.79 1011.28 1010.93 1010.89 1010.99 1010.96 1010.00 1009.82 1008.23 1008.02 1007.39 1007.31 1006.90 1006.56 1006.37 1006.48 1006.57 1006.98 1007.20 1007.37 1007.49 1007.89 1008.35 1008.83 1009.56 1010.09 1010.39 1010.86 1011.08 1011.37 1011.85 1012.37 1012.69 1013.22 1014.04 1014.65 1015.18 1015.63 1016.15 1016.61 1017.19 1017.70 1018.25 1018.87 1019.16 1019.48 1019.72 1020.12
1012.28 1011.76 1010.84 1010.10 1009.75 1010.19 1010.88 1009.70 1008.82 1007.89 1007.48 1007.32 1007.03 1006.40 1005.98 1006.01 1005.95 1005.96 1006.12 1006.06 1006.49 1006.86 1007.40 1007.91 1008.23 1008.87 1009.52 1009.81 1010.31 1010.73 1010.98 1011.36 1011.84 1012.39 1013.05 1013.83 1014.41 1014.76 1015.24 1015.79 1016.26 1016.79 1017.54 1018.11 1018.55 1019.01 1019.39 1019.65 1019.98
1011.98 1011.29 1010.30 1009.28 1009.90 1010.57 1011.12 1009.31 1008.02 1007.88 1007.69 1006.89 1006.51 1005.90 1005.74 1005.48 1005.47 1005.56 1005.67 1006.06 1006.08 1006.72 1006.92 1007.29 1007.92 1008.32 1008.69 1009.23 1009.67 1010.08 1010.46 1010.98 1011.40 1012.04 1012.55 1013.26 1014.01 1014.44 1014.94 1015.37 1015.78 1016.24 1017.04 1017.80 1018.32 1018.76 1019.18 1019.56 1019.95
1010.89 1010.00 1009.46 1009.11 1009.23 1010.10 1010.66 1009.24 1008.40 1008.10 1007.78 1006.49 1005.70 1005.62 1005.61 1005.48 1005.62 1005.76 1006.38 1006.72 1006.93 1006.92 1006.98 1006.97 1007.49 1008.17 1008.77 1009.15 1009.41 1009.70 1010.15 1010.74 1011.33 1011.84 1012.37 1012.89 1013.62 1014.12 1014.58 1015.08 1015.58 1016.05 1016.69 1017.12 1017.57 1018.13 1018.59 1019.14 1019.63
1009.63 1009.14 1008.85 1008.75 1008.97 1009.59 1009.40 1008.79 1008.31 1007.26 1006.71 1005.70 1005.34 1005.47 1005.50 1005.76 1006.42 1007.42 1008.12 1008.26 1008.15 1007.92 1007.84 1007.73 1007.59 1008.01 1008.82 1009.40 1009.68 1009.96 1010.20 1010.33 1010.68 1011.27 1012.00 1012.76 1013.49 1014.06 1014.39 1014.86 1015.41 1016.22 1016.92 1017.18 1017.45 1017.77 1018.20 1018.54 1019.00
1010.33 1009.96 1009.29 1009.19 1009.12 1008.98 1008.88 1008.59 1007.95 1007.15 1005.75 1005.16 1005.14 1005.14 1005.85 1006.76 1007.96 1009.07 1009.83 1010.04 1009.86 1009.66 1009.33 1008.77 1008.20 1008.24 1008.88 1009.40 1009.69 1010.03 1009.99 1010.46 1011.04 1011.35 1011.45 1011.89 1012.81 1013.88 1014.42 1014.53 1014.91 1015.72 1016.51 1017.04 1017.40 1017.87 1018.26 1018.58 1019.13
1010.79 1010.38 1009.87 1009.38 1009.16 1009.66 1008.96 1008.20 1007.44 1006.57 1005.56 1005.11 1005.52 1006.05 1006.94 1008.27 1009.42 1010.34 1010.84 1010.86 1010.83 1010.97 1010.77 1010.51 1009.94 1009.10 1008.76 1009.18 1009.99 1010.37 1010.46 1010.53 1010.86 1011.48 1011.91 1012.14 1012.25 1012.91 1013.64 1014.23 1014.65 1015.25 1015.94 1016.66 1017.20 1017.57 1018.20 1018.55 1018.73
1010.93 1010.62 1010.16 1010.08 1009.91 1009.51 1008.65 1007.78 1006.18 1005.81 1004.97 1005.14 1006.25 1007.38 1008.78 1010.10 1011.04 1011.80 1012.16 1012.23 1012.27 1012.11 1011.85 1011.20 1010.80 1010.49 1010.53 1010.58 1010.18 1009.92 1010.68 1011.54 1011.59 1011.50 1011.78 1012.43 1012.83 1013.02 1013.60 1013.92 1014.05 1014.43 1014.91 1015.38 1016.35 1017.01 1017.31 1017.67 1018.55
1010.87 1010.49 1010.52 1010.38 1010.55 1009.45 1009.30 1006.79 1006.46 1005.08 1005.13 1006.41 1007.96 1009.15 1010.21 1011.23 1012.26 1012.88 1013.12 1013.27 1013.29 1013.07 1012.89 1012.46 1012.05 1011.46 1011.09 1010.93 1011.29 1011.64 1011.52 1011.40 1011.23 1011.68 1011.97 1012.30 1012.65 1012.87 1013.20 1013.88 1013.98 1013.98 1014.36 1014.78 1015.32 1016.08 1016.75 1017.18 1017.55
1010.96 1011.29 1011.20 1010.88 1010.45 1009.59 1008.86 1007.32 1005.48 1004.97 1005.41 1006.50 1008.83 1010.75 1011.65 1012.47 1013.15 1013.65 1014.00 1014.38 1014.52 1014.25 1014.01 1013.71 1013.24 1013.12 1012.57 1012.30 1012.00 1011.81 1012.14 1012.19 1011.91 1011.94 1012.13 1012.06 1012.48 1012.79 1012.86 1013.32 1013.59 1014.00 1014.16 1013.99 1014.24 1014.74 1015.56 1016.24 1016.83
1011.78 1011.81 1011.39 1011.11 1010.72 1008.76 1007.66 1007.17 1005.55 1005.62 1006.62 1008.52 1010.24 1011.51 1012.74 1013.68 1013.87 1014.29 1014.90 1014.72 1015.12 1015.24 1015.08 1014.67 1014.04 1013.96 1013.24 1013.05 1012.93 1012.51 1012.55 1012.78 1012.81 1012.39 1012.46 1012.37 1012.14 1012.36 1012.68 1012.90 1013.38 1013.67 1013.84 1014.00 1014.26 1014.41 1014.64 1014.88 1015.47
1012.31 1012.02 1010.93 1010.11 1009.74 1007.53 1007.98 1007.33 1006.49 1006.66 1007.12 1008.60 1011.02 1012.64 1013.60 1014.34 1014.77 1014.90 1015.50 1015.39 1015.85 1016.04 1015.86 1015.21 1014.32 1014.02 1013.55 1013.41 1013.45 1013.63 1013.81 1013.32 1013.12 1013.24 1013.02 1012.42 1012.64 1012.51 1012.53 1012.81 1013.16 1013.37 1013.64 1013.69 1013.75 1014.22 1014.20 1014.34 1014.57
1012.31 1012.09 1012.09 1010.88 1009.94 1008.81 1008.59 1007.30 1006.63 1008.15 1009.41 1010.76 1012.02 1013.60 1014.77 1015.22 1015.70 1015.66 1016.05 1016.09 1016.45 1016.20 1015.70 1015.19 1014.52 1014.40 1014.63 1014.54 1014.48 1014.56 1014.44 1014.29 1013.99 1013.93 1013.74 1013.34 1012.77 1012.75 1012.77 1012.58 1012.84 1013.09 1013.20 1013.53 1013.74 1013.58 1013.82 1014.04 1014.11
1012.49 1012.90 1013.12 1012.74 1011.95 1010.97 1008.72 1007.46 1006.96 1008.28 1010.27 1011.87 1013.19 1014.28 1015.23 1015.87 1016.23 1016.21 1016.27 1016.07 1016.46 1016.27 1015.91 1015.55 1015.41 1015.88 1015.72 1015.34 1015.20 1014.99 1015.05 1014.93 1014.82 1014.72 1014.37 1013.83 1013.69 1013.37 1013.07 1012.87 1012.72 1013.03 1012.91 1013.11 1013.22 1013.39 1013.63 1013.70 1013.55
1013.24 1013.06 1014.11 1014.20 1012.78 1011.10 1009.20 1007.87 1007.16 1008.38 1010.13 1012.63 1013.84 1014.64 1015.39 1015.67 1016.05 1016.07 1016.26 1016.17 1016.28 1016.72 1016.97 1016.63 1016.68 1016.62 1016.80 1016.57 1015.98 1015.53 1015.51 1015.48 1015.17 1014.97 1014.63 1014.55 1014.19 1013.91 1013.64 1013.02 1012.54 1012.88 1013.00 1012.91 1012.91 1012.88 1013.05 1013.43 1013.47
1013.56 1013.58 1013.56 1013.86 1013.73 1012.36 1010.89 1009.15 1009.48 1010.41 1011.55 1013.30 1014.63 1015.36 1015.75 1016.08 1016.54 1017.03 1017.09 1017.02 1016.82 1016.80 1017.11 1017.49 1017.69 1017.76 1017.42 1016.67 1016.61 1016.48 1016.12 1015.99 1015.80 1015.53 1015.13 1014.86 1014.90 1014.29 1013.84 1013.44 1012.66 1012.57 1012.71 1012.69 1012.80 1012.69 1012.81 1012.67 1012.88
1013.70 1013.89 1014.15 1014.12 1013.75 1013.13 1011.88 1010.76 1010.76 1012.47 1014.05 1014.60 1015.30 1016.07 1016.48 1016.67 1016.82 1017.14 1017.49 1017.41 1017.42 1017.40 1017.58 1017.52 1017.58 1018.07 1018.39 1016.87 1016.60 1016.71 1016.81 1016.37 1016.01 1015.79 1015.74 1015.47 1014.84 1014.40 1013.96 1013.75 1013.06 1012.41 1012.62 1012.39 1012.35 1012.62 1012.43 1012.60 1012.18
Wind_Speed
7 5 5 6 6 4 2 4 4 3 1 5 3 7 11 11 8 6 3 4 2 12 15 17 14 15 14 12 13 13 12 12 11 12 11 10 9 9 9 8 9 10 9 8 10 11 6 7 6
4 5 5 4 5 5 8 4 1 6 6 4 4 6 7 5 3 1 3 7 6 12 12 16 12 15 14 13 13 13 13 12 12 12 11 10 10 8 7 8 9 9 8 8 10 8 7 6 6
6 5 5 4 3 6 6 3 4 4 4 4 5 2 7 4 1 3 5 8 8 12 12 14 15 14 14 13 13 13 12 12 12 12 12 11 10 8 6 2 5 5 8 8 8 6 6 6 5
4 5 4 6 5 6 4 8 9 7 4 2 3 8 3 4 2 4 3 9 9 12 12 14 16 13 14 14 14 13 13 13 12 13 14 13 5 6 4 2 3 5 6 6 6 7 6 6 5
4 3 5 5 6 3 5 6 5 6 3 2 2 4 5 3 2 2 3 8 9 11 12 12 13 13 13 13 15 14 13 13 13 13 12 10 8 7 6 5 5 5 5 5 6 6 6 6 6
4 4 6 6 4 2 2 2 4 3 3 0 4 8 5 7 4 4 4 8 9 11 12 12 11 10 12 13 14 14 14 14 14 13 11 9 9 8 8 7 7 8 7 7 7 6 5 6 5
5 4 8 8 9 5 0 0 4 5 6 7 2 8 4 8 4 2 5 7 9 10 11 11 13 13 7 9 10 12 13 13 14 13 11 8 8 10 9 9 8 8 8 8 7 7 7 6 6
4 4 6 4 6 8 3 2 4 7 12 2 4 6 5 8 4 2 4 7 9 10 12 13 12 14 14 13 9 10 10 11 13 12 11 10 9 11 9 7 9 10 9 8 8 8 8 7 7
3 6 7 8 6 3 6 6 3 6 11 14 8 12 14 3 1 4 6 8 9 10 12 13 13 13 14 14 13 10 10 11 9 10 10 8 9 11 11 10 11 11 10 10 10 9 8 8 7
6 8 9 5 9 9 11 10 11 10 14 17 14 15 11 11 9 11 11 11 13 13 14 14 14 14 14 11 13 14 13 8 8 9 9 8 11 9 10 10 10 10 11 11 11 10 9 7 5
5 9 12 11 12 12 12 14 15 13 17 15 15 13 15 14 11 14 15 15 14 14 12 15 15 15 15 12 9 7 7 8 9 14 11 12 9 7 6 5 6 7 9 7 8 7 6 3 2
10 14 14 15 9 6 15 17 14 14 21 20 21 20 18 15 15 14 15 14 13 14 15 16 17 15 15 10 9 9 9 9 9 11 14 10 7 7 7 6 8 7 7 7 6 4 3 4 3
14 13 14 13 13 13 16 21 19 21 22 23 20 17 17 16 17 14 13 12 12 15 16 17 16 17 14 15 10 10 10 9 10 10 12 10 10 9 9 7 7 7 7 6 6 5 5 4 4
10 11 16 17 16 15 17 20 16 21 15 16 15 18 17 16 14 14 11 12 13 14 15 16 16 16 16 15 14 10 10 10 10 10 11 14 10 9 9 9 8 8 7 7 6 6 6 5 4
8 13 16 20 18 11 5 15 13 16 11 12 17 18 19 20 20 16 16 15 14 12 12 13 14 15 17 17 15 11 10 10 10 10 13 15 13 12 11 9 8 8 7 8 6 6 5 5 4
9 12 11 8 2 4 6 15 15 7 12 22 23 22 19 20 16 16 14 15 12 11 11 12 10 13 15 15 12 10 10 10 9 10 10 14 14 13 11 9 9 9 8 8 7 7 6 5 5
13 13 16 13 8 4 11 12 16 22 20 24 24 19 16 18 14 11 14 12 12 11 10 9 9 12 12 12 11 11 12 10 8 8 9 13 14 13 10 9 8 10 9 9 9 8 8 7 6
16 18 17 18 18 13 15 22 18 20 21 24 22 17 13 10 13 17 17 16 15 13 10 9 6 7 9 8 8 7 8 8 9 9 9 11 10 13 11 9 9 9 7 8 8 9 8 7 7
20 20 21 20 19 21 18 17 19 19 23 19 15 10 7 11 15 17 18 18 18 18 16 14 8 5 4 6 6 7 8 7 7 7 10 12 11 12 12 8 10 10 9 9 9 7 9 7 7
16 19 20 19 13 1 14 19 21 19 20 14 10 8 13 11 15 16 17 18 19 18 18 18 15 7 3 5 4 5 5 6 7 6 8 10 11 13 12 11 10 12 9 11 11 11 8 4 9
17 17 19 19 17 13 13 15 14 10 16 9 4 15 15 15 15 16 18 19 17 18 17 16 15 12 10 7 3 3 3 4 5 5 6 7 10 10 11 12 11 12 11 11 12 11 13 8 8
16 13 9 11 8 11 7 12 12 13 8 15 13 13 14 14 14 15 17 20 21 19 16 17 17 16 11 9 5 7 3 5 4 6 6 6 9 11 12 12 12 12 10 12 11 11 11 8 8
8 3 7 8 11 14 11 15 9 16 11 7 12 10 12 12 12 13 14 15 16 16 16 16 17 16 15 12 7 6 7 6 6 3 6 7 7 10 11 12 13 12 10 12 14 15 14 10 8
3 7 12 11 8 11 7 8 4 4 3 8 9 10 10 9 11 13 13 14 14 14 14 13 16 16 16 14 14 13 9 9 8 7 5 5 5 6 10 10 11 11 11 12 11 12 15 13 11
5 9 8 9 11 19 11 8 11 13 3 7 10 8 8 9 10 12 12 12 12 13 12 10 15 18 17 17 17 14 12 11 9 9 7 5 5 5 6 9 10 10 11 12 11 12 13 14 12
12 10 8 14 16 16 14 12 10 6 10 10 11 10 9 10 9 10 11 12 12 13 14 15 16 16 16 14 14 13 14 8 7 9 8 7 6 6 6 7 10 12 12 12 11 9 10 12 11
3 6 7 6 8 9 14 21 24 14 12 10 10 9 8 8 8 9 10 11 12 14 16 16 17 16 15 14 11 12 12 12 10 10 9 6 8 7 7 7 8 10 11 11 12 9 11 11 12
8 6 6 5 5 15 17 23 17 15 10 9 7 7 7 9 9 11 11 12 11 13 14 15 14 14 13 14 12 11 11 11 11 9 11 11 9 8 9 7 6 7 9 10 11 10 9 11 10
9 8 11 12 10 13 17 13 8 10 7 8 6 5 7 8 9 9 9 10 10 10 10 11 12 12 11 11 11 11 10 11 10 10 11 11 11 10 8 8 6 6 8 9 9 11 10 12 12
13 18 18 8 6 10 13 14 14 7 3 4 4 2 3 4 5 5 5 6 8 9 8 9 9 10 11 10 10 9 10 10 10 11 11 11 11 11 10 10 7 5 8 9 10 12 10 14 13
Wind_Direction
252 269 284 254 260 230 268 97 353 338 318 29 325 312 335 311 307 5 122 185 176 163 159 171 173 172 171 170 165 160 164 167 161 153 152 144 140 126 112 128 120 108 107 92 76 74 82 82 69
295 285 237 285 262 270 80 60 46 30 0 325 291 264 265 302 358 288 206 169 175 163 168 181 171 173 172 170 168 167 169 169 170 166 168 163 155 139 127 124 121 117 101 96 88 93 91 80 76
264 270 272 295 295 346 5 55 10 329 319 288 298 249 307 327 48 357 67 160 174 168 177 181 164 177 177 177 174 174 179 180 178 171 168 161 150 144 170 98 98 107 111 97 97 99 105 94 76
256 199 207 261 321 328 286 330 343 311 120 192 291 276 194 298 336 44 75 159 177 173 182 146 164 184 181 181 183 185 187 190 187 182 181 152 132 155 171 195 214 129 109 117 125 131 114 108 88
235 252 257 252 286 283 307 302 312 302 296 238 212 294 282 148 131 151 153 175 188 180 188 163 172 189 188 184 186 189 196 201 193 188 181 151 178 195 192 205 186 145 158 149 139 121 113 96 89
234 291 254 272 345 332 313 2 303 281 319 58 248 278 290 106 169 171 190 193 200 190 191 191 175 193 192 192 192 193 196 200 193 180 171 153 190 206 205 202 179 170 168 166 150 132 124 110 98
286 268 290 304 299 297 159 32 255 336 297 288 334 284 299 176 143 157 194 210 203 202 194 199 187 193 186 189 193 193 195 197 178 170 159 163 185 203 195 201 187 181 178 165 149 149 135 120 105
277 270 276 247 309 308 127 193 308 293 306 29 306 256 302 79 106 178 212 216 208 211 201 203 200 198 202 200 196 185 181 176 173 169 163 160 177 191 179 181 188 190 180 163 155 148 140 134 117
278 255 264 275 281 319 133 285 152 294 274 277 238 275 301 78 232 221 219 224 217 214 208 210 208 208 208 209 199 199 189 188 185 184 171 148 199 186 180 195 174 189 170 168 164 155 141 128 115
239 252 282 295 295 287 308 293 284 282 272 276 275 254 250 249 248 253 239 237 221 222 215 212 213 212 212 211 210 204 208 207 207 200 191 195 207 197 199 177 170 178 160 169 169 154 146 197 161
216 255 282 291 284 300 293 287 280 262 274 274 294 295 303 291 258 258 260 254 247 223 219 214 215 214 213 213 208 198 207 200 212 216 205 201 202 190 188 170 178 172 161 175 171 159 194 171 167
257 248 268 285 301 284 277 288 280 264 272 286 286 292 292 279 269 263 260 260 254 241 225 212 214 213 213 210 207 211 206 201 202 208 200 190 193 184 188 185 184 182 174 183 178 176 156 163 151
246 268 278 282 276 267 283 275 276 277 281 280 284 286 277 272 270 269 263 262 252 246 233 219 204 213 209 209 210 210 211 204 202 200 195 187 188 187 188 190 184 181 174 179 174 176 171 164 153
330 298 283 277 274 273 266 276 288 277 277 290 289 289 285 272 278 281 265 258 248 240 236 227 217 210 212 212 212 208 210 207 208 200 194 192 192 188 188 184 186 183 182 176 181 173 171 167 153
286 295 296 280 269 239 269 273 238 273 294 280 280 285 291 295 295 281 266 258 264 243 239 234 224 212 215 213 212 215 211 207 203 203 196 194 202 192 188 186 184 184 174 174 171 168 170 160 158
267 272 278 290 90 145 209 278 300 347 305 288 286 285 290 293 296 298 298 303 291 273 254 227 227 226 215 221 216 211 212 207 209 204 198 192 201 198 192 188 186 179 170 173 174 174 173 175 173
240 268 281 301 315 130 209 282 300 299 292 282 284 290 298 299 317 356 357 346 336 321 298 281 228 234 236 227 226 215 214 214 212 209 207 200 198 203 192 192 187 177 176 182 179 175 176 173 174
284 293 291 296 299 224 272 288 288 289 283 279 287 295 295 311 28 37 20 20 9 6 353 332 302 240 238 239 234 234 229 215 210 211 211 209 203 201 199 194 184 176 183 186 185 177 181 172 162
276 286 284 283 292 297 296 296 296 286 289 282 286 304 322 51 56 39 28 22 19 19 11 358 342 299 241 230 225 232 230 217 227 232 215 208 199 201 208 197 183 175 188 192 185 174 173 170 148
281 281 281 288 288 296 284 299 289 285 270 293 315 336 69 54 44 34 29 29 28 23 16 8 357 341 216 229 239 260 253 246 236 220 238 224 211 197 200 200 193 181 183 189 186 177 167 175 176
268 272 280 285 310 283 292 281 299 273 268 290 31 94 71 53 39 32 27 28 28 29 23 29 24 18 6 339 290 200 263 1 306 252 233 229 237 212 210 210 201 186 187 186 186 187 182 171 193
272 275 290 283 282 295 24 298 311 284 252 107 77 62 59 55 50 38 31 28 25 27 24 29 27 31 30 20 343 327 298 273 240 252 261 234 223 233 209 218 217 198 192 193 187 185 193 187 183
266 337 277 271 270 285 256 269 271 281 260 134 84 64 59 58 56 51 47 41 35 31 28 29 38 34 30 29 23 9 338 310 307 337 285 235 231 229 235 213 222 216 210 202 187 184 193 199 189
357 282 262 256 264 260 281 255 300 35 82 116 94 72 64 59 60 52 45 46 39 33 32 32 40 40 38 36 24 18 359 336 323 311 292 284 237 220 231 229 224 225 216 211 203 196 195 198 203
225 260 293 273 253 265 289 277 258 303 287 144 130 105 79 66 59 55 47 46 42 33 35 36 38 36 31 32 32 23 5 351 333 327 311 306 287 256 237 230 226 229 227 219 207 202 201 202 202
292 271 270 287 281 292 314 276 267 64 105 99 102 98 80 56 47 47 39 36 30 30 29 29 33 35 30 30 29 27 20 5 350 341 328 324 314 299 272 242 231 231 228 225 225 213 208 207 209
62 242 349 326 296 282 267 271 277 198 128 119 118 106 82 67 41 38 33 37 23 23 26 27 30 24 23 26 28 28 23 19 11 352 340 334 322 312 306 282 245 238 234 227 224 221 221 220 211
239 315 296 212 260 268 271 285 280 280 165 140 107 77 54 46 33 27 24 29 30 23 14 23 28 26 18 13 19 23 21 15 13 7 8 351 330 315 301 273 265 239 245 235 224 225 223 224 223
258 251 229 263 259 270 272 264 346 1 121 140 112 73 48 36 21 13 15 11 28 35 26 16 15 16 13 17 12 7 12 11 8 7 5 358 341 334 310 298 279 261 250 237 234 234 232 226 226
281 266 269 257 233 237 264 261 322 26 64 94 115 89 23 37 34 14 7 23 22 18 17 16 11 8 357 10 12 8 0 1 3 2 356 349 348 340 334 319 293 266 264 256 238 236 230 241 228